When you browse on this site, cookies collect data to enhance your experience and personalize the content and advertising you see.
Visit our Privacy Policy to learn more. By continuing to use the site, you agree to this use of cookies and data.
  • In Czech Republic
  • List of Countries
  • For 7 days
  • Water Temperature
  • Weather Map
  • Weather Widgets
  • user-avatar
    Login

    Hourly Weather Kontuzla

    Today, 27 May, Wednesday

    Time Temperature Precipitation Wind Pressure Humidity
    00:00 +13°C° 0 mm 6 mps 754 mmHg 76%
    01:00 +12°C° 0 mm 7 mps 753 mmHg 75%
    02:00 +12°C° 0.1 mm 5 mps 753 mmHg 78%
    03:00 +12°C° 0.1 mm 4 mps 753 mmHg 80%
    04:00 +12°C° 0 mm 3 mps 753 mmHg 84%
    05:00 +12°C° 0.9 mm 4 mps 752 mmHg 83%
    06:00 +13°C° 0.9 mm 6 mps 752 mmHg 82%
    07:00 +14°C° 0.9 mm 7 mps 751 mmHg 81%
    08:00 +15°C° 0.3 mm 8 mps 751 mmHg 78%
    09:00 +17°C° 0.3 mm 8 mps 751 mmHg 75%
    10:00 +18°C° 0.3 mm 8 mps 750 mmHg 72%
    11:00 +21°C° 0 mm 8 mps 750 mmHg 69%
    12:00 +23°C° 0 mm 8 mps 749 mmHg 66%
    13:00 +24°C° 0 mm 7 mps 749 mmHg 63%
    14:00 +26°C° 0 mm 7 mps 749 mmHg 64%
    15:00 +26°C° 0 mm 6 mps 749 mmHg 65%
    16:00 +27°C° 0 mm 6 mps 748 mmHg 66%
    17:00 +26°C° 0.3 mm 5 mps 748 mmHg 71%
    18:00 +26°C° 0.3 mm 4 mps 748 mmHg 76%
    19:00 +25°C° 0.3 mm 4 mps 748 mmHg 82%
    20:00 +22°C° 0.1 mm 4 mps 749 mmHg 85%
    21:00 +20°C° 0.1 mm 5 mps 749 mmHg 88%
    22:00 +17°C° 0.1 mm 5 mps 749 mmHg 92%
    23:00 +16°C° 0 mm 5 mps 749 mmHg 92%

    Tomorrow, 28 May, Thursday

    Time Temperature Precipitation Wind Pressure Humidity
    00:00 +15°C° 0 mm 5 mps 749 mmHg 91%
    01:00 +15°C° 0 mm 5 mps 750 mmHg 91%
    02:00 +14°C° 0 mm 5 mps 750 mmHg 91%
    03:00 +13°C° 0 mm 5 mps 751 mmHg 90%
    04:00 +12°C° 0 mm 5 mps 751 mmHg 89%
    05:00 +12°C° 0 mm 5 mps 751 mmHg 88%
    06:00 +13°C° 0 mm 5 mps 752 mmHg 86%
    07:00 +13°C° 0 mm 5 mps 752 mmHg 84%
    08:00 +14°C° 0 mm 5 mps 752 mmHg 79%
    09:00 +14°C° 0 mm 5 mps 752 mmHg 74%
    10:00 +15°C° 0 mm 4 mps 753 mmHg 69%
    11:00 +17°C° 0 mm 4 mps 753 mmHg 67%
    12:00 +17°C° 0 mm 4 mps 753 mmHg 64%
    13:00 +18°C° 0 mm 4 mps 753 mmHg 61%
    14:00 +19°C° 0 mm 4 mps 753 mmHg 60%
    15:00 +19°C° 0 mm 4 mps 753 mmHg 58%
    16:00 +20°C° 0 mm 4 mps 753 mmHg 56%
    17:00 +19°C° 0 mm 4 mps 753 mmHg 60%
    18:00 +19°C° 0 mm 3 mps 753 mmHg 64%
    19:00 +19°C° 0 mm 2 mps 753 mmHg 68%
    20:00 +17°C° 0 mm 2 mps 754 mmHg 73%
    21:00 +15°C° 0 mm 2 mps 754 mmHg 77%
    22:00 +14°C° 0 mm 2 mps 754 mmHg 81%
    23:00 +13°C° 0 mm 2 mps 754 mmHg 83%

    Day after tomorrow, 29 May, Friday

    Time Temperature Precipitation Wind Pressure Humidity
    00:00 +13°C° 0 mm 2 mps 754 mmHg 85%
    01:00 +13°C° 0 mm 2 mps 754 mmHg 86%
    02:00 +12°C° 0 mm 2 mps 754 mmHg 87%
    03:00 +12°C° 0 mm 1 mps 755 mmHg 88%
    04:00 +11°C° 0 mm 1 mps 755 mmHg 89%
    05:00 +13°C° 0 mm 1 mps 755 mmHg 84%
    06:00 +14°C° 0 mm 1 mps 755 mmHg 79%
    07:00 +16°C° 0 mm 1 mps 755 mmHg 74%
    08:00 +18°C° 0 mm 1 mps 755 mmHg 68%
    09:00 +20°C° 0 mm 1 mps 755 mmHg 61%
    10:00 +21°C° 0 mm 1 mps 755 mmHg 55%
    11:00 +22°C° 0 mm 1 mps 755 mmHg 52%
    12:00 +23°C° 0 mm 1 mps 755 mmHg 49%
    13:00 +23°C° 0 mm 1 mps 754 mmHg 47%
    14:00 +24°C° 0 mm 2 mps 754 mmHg 47%
    15:00 +24°C° 0 mm 2 mps 754 mmHg 47%
    16:00 +24°C° 0 mm 2 mps 754 mmHg 47%
    17:00 +24°C° 0 mm 1 mps 753 mmHg 51%
    18:00 +23°C° 0 mm 1 mps 753 mmHg 55%
    19:00 +23°C° 0 mm 1 mps 753 mmHg 60%
    20:00 +21°C° 0 mm 1 mps 753 mmHg 64%
    21:00 +19°C° 0 mm 1 mps 753 mmHg 68%
    22:00 +16°C° 0 mm 1 mps 753 mmHg 72%
    23:00 +16°C° 0 mm 1 mps 752 mmHg 75%

    30 May, Saturday

    Time Temperature Precipitation Wind Pressure Humidity
    00:00 +14°C° 0 mm 0 mps 752 mmHg 78%
    01:00 +14°C° 0 mm 0 mps 752 mmHg 81%
    02:00 +13°C° 0 mm 0 mps 752 mmHg 82%
    03:00 +13°C° 0 mm 0 mps 752 mmHg 83%
    04:00 +13°C° 0 mm 0 mps 752 mmHg 83%
    05:00 +14°C° 0 mm 0 mps 752 mmHg 79%
    06:00 +16°C° 0 mm 0 mps 752 mmHg 75%
    07:00 +17°C° 0 mm 0 mps 752 mmHg 70%
    08:00 +18°C° 0 mm 0 mps 752 mmHg 66%
    09:00 +20°C° 0 mm 0 mps 751 mmHg 61%
    10:00 +21°C° 0 mm 0 mps 751 mmHg 56%
    11:00 +22°C° 0 mm 0 mps 751 mmHg 54%
    12:00 +25°C° 0 mm 1 mps 751 mmHg 51%
    13:00 +26°C° 0 mm 1 mps 751 mmHg 49%
    14:00 +26°C° 0 mm 1 mps 750 mmHg 48%
    15:00 +26°C° 0 mm 1 mps 750 mmHg 48%
    16:00 +26°C° 0 mm 1 mps 750 mmHg 48%
    17:00 +25°C° 0 mm 1 mps 749 mmHg 54%
    18:00 +24°C° 0 mm 2 mps 749 mmHg 60%
    19:00 +24°C° 0 mm 2 mps 749 mmHg 66%
    20:00 +21°C° 0 mm 3 mps 748 mmHg 72%
    21:00 +19°C° 0 mm 3 mps 748 mmHg 77%
    22:00 +17°C° 0 mm 4 mps 748 mmHg 83%
    23:00 +15°C° 0 mm 4 mps 748 mmHg 82%

    31 May, Sunday

    Time Temperature Precipitation Wind Pressure Humidity
    00:00 +14°C° 0 mm 3 mps 748 mmHg 82%
    01:00 +13°C° 0 mm 3 mps 747 mmHg 82%
    02:00 +13°C° 0 mm 3 mps 747 mmHg 83%
    03:00 +12°C° 0 mm 3 mps 747 mmHg 85%
    04:00 +11°C° 0 mm 3 mps 746 mmHg 86%
    05:00 +12°C° 0 mm 4 mps 746 mmHg 83%
    06:00 +13°C° 0 mm 4 mps 746 mmHg 81%
    07:00 +14°C° 0 mm 5 mps 745 mmHg 78%
    08:00 +15°C° 0 mm 5 mps 745 mmHg 72%
    09:00 +16°C° 0 mm 5 mps 745 mmHg 66%
    10:00 +17°C° 0 mm 5 mps 744 mmHg 60%
    11:00 +19°C° 0 mm 5 mps 744 mmHg 59%
    12:00 +19°C° 0 mm 5 mps 743 mmHg 57%
    13:00 +19°C° 0 mm 5 mps 743 mmHg 56%
    14:00 +19°C° 0 mm 6 mps 742 mmHg 56%
    15:00 +19°C° 0 mm 6 mps 742 mmHg 57%
    16:00 +19°C° 0 mm 6 mps 741 mmHg 57%
    17:00 +17°C° 0.1 mm 6 mps 741 mmHg 61%
    18:00 +16°C° 0.1 mm 6 mps 740 mmHg 64%
    19:00 +14°C° 0.1 mm 6 mps 740 mmHg 68%
    20:00 +13°C° 0.6 mm 6 mps 739 mmHg 73%
    21:00 +11°C° 0.6 mm 6 mps 739 mmHg 78%
    22:00 +10°C° 0.6 mm 5 mps 739 mmHg 84%
    23:00 +10°C° 0.4 mm 5 mps 739 mmHg 82%

    1 June, Monday

    Time Temperature Precipitation Wind Pressure Humidity
    00:00 +10°C° 0.4 mm 5 mps 739 mmHg 81%
    01:00 +10°C° 0.4 mm 5 mps 738 mmHg 79%
    02:00 +9°C° 0.1 mm 5 mps 739 mmHg 78%
    03:00 +8°C° 0.1 mm 5 mps 739 mmHg 77%
    04:00 +8°C° 0.1 mm 6 mps 739 mmHg 76%
    05:00 +8°C° 0 mm 6 mps 740 mmHg 74%
    06:00 +8°C° 0 mm 6 mps 740 mmHg 73%
    07:00 +8°C° 0 mm 6 mps 741 mmHg 71%
    08:00 +9°C° 0 mm 6 mps 741 mmHg 68%
    09:00 +10°C° 0 mm 6 mps 741 mmHg 64%
    10:00 +12°C° 0 mm 5 mps 742 mmHg 61%
    11:00 +13°C° 0 mm 5 mps 742 mmHg 59%
    12:00 +13°C° 0 mm 5 mps 742 mmHg 57%
    13:00 +14°C° 0 mm 5 mps 743 mmHg 56%
    14:00 +14°C° 0.1 mm 5 mps 743 mmHg 55%
    15:00 +14°C° 0.1 mm 5 mps 743 mmHg 54%
    16:00 +14°C° 0.1 mm 5 mps 743 mmHg 53%
    17:00 +13°C° 0 mm 5 mps 744 mmHg 57%
    18:00 +13°C° 0 mm 4 mps 744 mmHg 60%
    19:00 +12°C° 0 mm 4 mps 744 mmHg 63%
    20:00 +11°C° 0 mm 3 mps 745 mmHg 67%
    21:00 +9°C° 0 mm 3 mps 745 mmHg 71%
    22:00 +7°C° 0 mm 3 mps 745 mmHg 75%
    23:00 +7°C° 0 mm 2 mps 745 mmHg 76%
    Show more